Wind_Speed
21 21 21 21 21 22 21 21 22 23 23 21 20 18 16 15 14 15 14 13 13 12 11 9 8 8 8 11 8 7 7 6 3 4 5 7 8 3 3 2 2 3 4 9 11 18 18
22 20 19 19 18 18 18 18 17 17 18 18 17 16 14 13 12 12 11 10 10 9 8 9 11 8 7 7 8 7 9 8 5 5 8 4 3 3 2 1 2 3 9 17 11 9 9
24 24 21 19 17 16 15 13 12 12 13 14 13 12 11 10 10 10 11 10 9 9 10 10 9 9 11 6 7 7 6 6 7 5 5 5 4 2 1 3 3 5 5 8 3 3 3
24 23 23 22 20 18 15 13 10 7 5 5 6 7 7 7 7 8 8 8 8 9 9 7 7 7 7 8 7 7 8 2 4 6 4 4 2 1 2 5 2 2 2 5 4 0 3
26 26 26 25 24 23 21 17 12 10 7 5 5 5 4 5 7 7 7 6 9 9 7 7 7 4 3 4 7 9 12 6 3 5 6 5 2 1 1 2 4 6 3 4 9 5 4
26 27 26 26 27 27 26 22 16 11 10 7 5 4 4 3 3 5 7 11 9 6 6 6 7 1 3 3 5 11 13 7 5 3 2 1 1 2 4 5 2 3 4 4 7 5 2
24 26 27 27 29 31 33 29 22 17 13 10 9 6 4 4 4 6 7 5 2 4 9 7 5 4 3 5 4 10 10 7 4 3 2 2 5 2 1 3 1 2 4 9 9 9 7
22 23 25 27 29 31 34 33 27 22 19 16 12 9 6 6 4 9 8 1 2 8 7 8 8 7 5 3 2 8 11 4 4 3 5 5 3 1 3 3 3 4 7 8 9 4 9
20 22 23 24 26 29 31 32 30 23 20 18 15 11 6 7 6 6 6 4 9 4 3 4 4 3 5 3 3 8 11 2 3 4 4 2 1 2 4 5 5 4 5 3 6 7 5
18 19 20 22 24 26 28 29 30 27 19 20 19 13 8 2 2 3 4 10 8 2 4 5 2 3 7 2 2 5 8 5 1 3 3 1 0 3 3 3 1 5 1 2 6 6 3
17 17 19 20 23 26 27 27 27 27 24 17 22 20 11 9 1 2 6 10 4 1 5 4 3 4 5 3 4 5 9 6 3 4 5 2 2 3 2 1 2 8 7 9 4 3 4
15 16 17 19 21 23 25 26 26 25 24 21 15 22 16 9 9 7 10 10 3 6 2 5 3 4 3 3 2 6 5 6 2 2 1 4 1 2 2 5 4 7 7 2 3 2 2
13 14 16 17 19 21 23 23 23 24 23 21 18 17 19 18 10 9 10 1 5 6 2 7 4 4 5 3 3 4 4 5 4 6 5 3 2 1 1 5 4 6 5 4 5 4 4
12 14 15 17 18 18 20 22 22 22 21 21 17 10 18 16 10 6 3 5 8 2 2 2 3 5 1 4 2 2 3 2 4 3 1 2 6 2 1 2 2 3 3 4 4 2 5
11 13 16 17 19 20 20 20 21 21 20 20 17 9 15 16 9 3 2 6 5 3 1 4 6 2 2 2 1 1 4 4 1 3 2 3 5 1 1 1 3 2 2 3 1 3 2
12 15 17 18 20 21 22 22 22 21 21 19 16 7 10 15 9 4 4 5 5 3 1 2 1 1 2 3 1 2 4 0 3 2 1 1 5 3 2 1 1 2 2 2 2 2 4
11 14 16 17 19 20 21 23 23 22 21 18 10 4 8 13 8 4 4 2 2 2 1 2 2 2 2 2 2 2 2 0 2 3 1 2 4 6 2 3 5 1 1 1 2 4 4
11 13 14 16 18 20 21 22 23 23 20 17 6 3 9 10 3 3 2 1 1 2 0 1 0 1 2 3 3 3 2 1 4 3 2 0 3 4 9 3 2 2 3 4 4 4 4
12 12 14 16 18 20 20 21 22 22 22 19 8 3 6 9 3 1 2 3 2 4 3 3 2 3 1 2 3 3 2 4 6 5 5 3 1 4 9 4 2 1 3 2 2 2 6
12 13 15 18 19 20 20 20 19 17 15 13 6 3 1 4 4 3 2 2 2 3 2 3 2 1 1 3 5 5 2 5 9 8 9 6 4 8 8 6 1 5 7 6 4 6 8
13 14 16 17 17 18 19 19 17 13 11 8 5 3 3 3 3 3 2 2 2 2 2 4 2 5 3 3 4 5 1 1 5 6 7 5 6 6 10 12 11 15 20 18 16 17 13
11 11 12 15 17 18 18 17 14 11 7 4 3 3 3 5 6 0 3 3 4 2 2 3 4 3 1 3 4 9 3 1 6 3 6 2 4 1 3 11 15 18 21 20 19 20 21
13 14 14 16 18 17 15 14 12 10 7 3 2 1 2 3 3 2 3 2 2 1 5 8 2 2 4 7 6 11 13 15 15 6 7 6 4 1 8 3 6 8 11 8 6 7 7
16 16 17 18 18 15 13 12 11 10 7 3 1 1 1 3 2 3 5 7 3 6 4 14 19 5 6 14 17 20 24 29 26 25 22 7 6 3 5 3 4 7 8 8 8 5 6
19 19 19 19 17 14 12 11 10 8 6 5 3 3 2 2 4 10 7 4 10 11 9 12 18 15 9 7 3 6 4 4 4 1 11 18 7 4 4 4 9 10 8 1 5 2 2
21 21 20 18 16 13 10 10 9 8 6 6 6 5 3 1 4 6 3 4 3 3 7 4 4 3 4 2 1 3 4 3 4 3 1 3 3 9 3 4 5 0 1 2 3 4 6
21 18 16 13 11 10 10 10 9 8 7 6 5 4 4 3 9 9 2 3 4 3 2 6 6 5 5 2 2 3 5 4 4 4 4 1 0 10 12 9 6 4 4 3 2 4 16
11 11 11 11 11 10 10 9 8 6 5 4 5 4 6 5 16 16 17 17 15 12 3 4 6 2 1 1 3 4 4 4 2 4 5 6 5 4 3 4 9 5 6 4 7 20 12
10 11 11 12 12 11 10 9 7 5 3 2 4 5 6 7 10 16 24 24 24 20 9 6 7 5 4 2 1 2 3 3 2 4 4 4 6 3 6 6 6 15 1 13 8 4 9
Wind_Direction
51 51 51 49 56 64 64 66 72 74 73 73 77 81 85 93 100 99 100 105 106 106 111 104 82 96 70 61 66 18 9 4 26 21 58 98 65 32 49 55 356 186 296 308 288 293 289
58 54 53 51 50 50 61 66 69 76 82 81 78 78 81 85 86 89 93 95 89 86 93 93 90 82 75 78 52 22 19 17 30 30 53 84 97 89 310 293 162 252 285 284 294 285 259
50 54 57 55 53 50 46 51 66 71 73 76 80 79 77 77 80 83 85 86 78 80 97 102 86 66 82 82 66 31 5 25 29 39 46 50 116 90 335 290 262 284 317 317 286 239 224
49 50 49 52 53 52 51 43 33 35 46 52 56 63 76 92 100 98 94 88 83 90 104 94 95 71 78 70 50 16 23 36 353 18 24 38 83 160 232 293 294 276 63 7 321 241 240
53 54 50 46 43 44 41 37 42 40 36 52 65 67 78 103 108 117 99 96 96 94 111 99 84 73 79 48 25 20 18 13 33 33 40 44 14 305 292 3 9 14 328 321 322 276 256
46 52 53 51 47 41 33 29 35 39 46 51 58 75 83 86 144 153 99 110 98 112 99 93 89 104 53 8 7 22 20 34 22 360 335 347 258 45 28 51 229 280 317 300 280 282 265
43 44 46 46 45 41 37 38 39 42 52 57 58 60 72 78 117 156 149 136 89 72 69 56 58 73 18 347 34 17 4 349 342 349 35 305 69 88 130 66 122 271 260 268 275 281 335
42 44 43 41 39 39 38 39 45 45 44 49 57 69 81 51 121 155 167 202 116 127 92 69 65 47 33 43 46 349 358 25 14 5 357 17 59 81 16 20 344 291 285 285 293 335 340
44 41 41 41 38 35 36 38 40 45 51 44 36 34 50 67 87 166 189 153 142 121 75 47 48 28 20 35 38 355 7 12 49 45 19 120 312 1 35 347 335 277 237 295 273 313 276
42 43 39 34 34 34 33 32 35 36 35 36 33 36 43 99 66 134 155 159 150 122 78 328 37 8 2 26 50 15 12 26 70 45 16 3 236 44 352 285 54 306 141 305 306 7 297
37 37 35 33 27 24 24 26 28 29 29 28 29 26 32 50 98 148 150 162 180 324 44 308 346 354 7 51 319 1 21 34 49 336 59 287 12 21 307 244 89 250 326 285 251 260 345
28 29 26 23 21 19 18 17 18 22 23 23 24 27 30 39 66 112 137 156 183 42 294 355 349 348 12 9 24 358 6 26 25 9 151 259 102 173 268 299 225 295 304 295 110 121 356
18 15 14 13 13 11 10 12 13 13 15 19 20 26 27 32 59 109 119 99 35 88 281 324 340 5 357 315 3 23 357 16 38 25 6 333 284 173 342 344 15 10 12 338 355 4 233
7 5 3 2 3 6 5 8 10 8 10 8 13 23 29 32 40 119 5 52 66 302 19 343 315 311 278 12 306 329 360 352 36 74 355 65 335 189 196 147 242 301 115 141 254 290 283
3 1 2 0 1 1 4 6 7 7 5 3 359 12 31 25 33 58 343 51 185 196 256 340 322 309 261 269 266 218 200 156 115 55 107 27 285 135 273 79 115 340 60 169 228 286 27
358 1 2 1 1 2 1 1 3 5 2 2 353 10 26 14 4 360 75 172 180 166 208 191 287 258 316 321 280 10 195 204 135 101 69 278 308 241 194 119 262 196 226 60 358 336 285
352 355 356 356 357 359 359 358 359 3 3 2 356 11 5 360 360 18 111 204 105 145 206 196 260 291 311 344 326 274 222 326 117 174 90 110 114 294 16 206 188 293 263 205 152 160 205
338 345 350 353 354 355 356 355 354 355 2 2 9 28 357 360 55 66 98 32 318 166 313 299 338 285 281 325 293 275 241 88 124 124 98 160 150 264 236 313 328 276 240 159 129 276 237
329 336 345 350 353 353 353 354 355 355 357 2 351 333 353 3 103 15 238 186 213 175 203 182 264 219 48 286 302 261 116 172 160 155 161 180 278 338 326 359 324 42 254 232 108 25 210
329 335 344 348 352 352 351 352 356 355 357 356 352 1 357 35 69 112 61 292 181 214 231 184 223 153 257 246 234 283 216 222 207 198 178 168 188 188 223 225 139 273 270 244 212 244 257
328 336 341 345 345 346 347 346 350 356 356 3 14 20 354 312 3 23 341 277 279 285 234 208 269 218 211 262 317 244 129 314 219 229 192 160 219 226 252 272 279 266 263 266 252 252 245
311 320 334 341 341 340 338 340 345 356 7 25 34 13 342 294 297 359 219 236 209 253 185 258 207 321 292 236 241 297 349 233 232 168 162 206 267 89 283 257 255 271 269 260 255 257 256
301 311 320 331 335 337 337 339 344 355 11 63 107 130 314 282 312 114 242 309 80 99 268 243 17 342 292 267 279 286 273 255 246 228 194 179 183 337 280 269 301 290 255 231 216 217 206
289 299 308 317 324 328 331 335 343 353 5 15 67 131 150 274 298 247 329 324 292 297 249 299 300 281 261 287 293 291 278 258 248 243 226 205 159 175 277 339 259 238 276 233 222 54 55
283 290 299 305 310 315 320 325 330 335 332 303 276 203 188 242 269 298 310 322 318 316 294 286 287 284 254 310 342 315 306 322 272 248 213 211 193 246 231 198 290 298 289 225 173 144 337
267 276 285 282 290 299 308 316 322 320 308 285 290 279 197 178 248 296 322 311 265 263 319 302 352 287 291 114 159 247 245 270 285 286 109 165 204 203 164 227 251 92 315 57 81 224 329
261 272 270 276 283 289 299 307 312 313 309 285 277 263 229 241 270 302 255 278 304 345 276 308 345 306 231 134 210 225 248 225 257 234 186 121 155 215 232 250 269 249 344 318 230 297 335
238 244 249 263 274 283 291 294 298 302 302 291 282 288 256 238 271 271 266 271 271 265 196 314 350 328 58 200 187 247 228 245 286 235 183 194 182 201 211 248 271 78 3 1 277 310 301
247 247 250 258 270 277 280 281 282 289 297 301 258 287 299 274 267 281 273 267 261 262 266 242 235 275 271 104 289 290 298 343 109 275 301 263 202 215 199 214 281 331 32 313 296 288 327
Height
1546 1543 1540 1538 1536 1534 1532 1530 1528 1526 1525 1524 1524 1523 1522 1521 1521 1521 1522 1523 1523 1524 1525 1525 1526 1526 1526 1527 1533 1534 1533 1532 1532 1530 1529 1529 1531 1532 1534 1534 1534 1534 1532 1529 1528 1527 1526
1549 1547 1544 1541 1540 1537 1535 1534 1532 1531 1529 1528 1527 1527 1526 1526 1525 1525 1526 1526 1526 1526 1526 1526 1527 1527 1528 1531 1533 1533 1533 1532 1532 1530 1530 1531 1533 1533 1534 1533 1534 1533 1531 1527 1523 1523 1523
1551 1549 1548 1545 1543 1540 1538 1536 1535 1533 1532 1531 1530 1529 1529 1528 1527 1528 1528 1528 1528 1528 1528 1529 1529 1528 1529 1535 1533 1534 1533 1532 1532 1531 1531 1532 1532 1533 1533 1533 1532 1531 1531 1525 1521 1521 1523
1555 1552 1550 1548 1546 1543 1541 1538 1535 1534 1533 1532 1531 1531 1530 1530 1530 1530 1530 1530 1529 1529 1530 1530 1530 1530 1533 1534 1534 1534 1533 1532 1532 1532 1532 1532 1532 1533 1532 1532 1530 1532 1532 1539 1523 1523 1522
1558 1556 1553 1551 1548 1545 1543 1540 1537 1534 1533 1531 1531 1531 1531 1531 1531 1531 1531 1530 1531 1531 1531 1531 1532 1531 1535 1536 1535 1534 1533 1532 1532 1532 1533 1532 1533 1533 1532 1534 1538 1537 1544 1538 1533 1523 1522
1561 1560 1557 1554 1551 1548 1544 1540 1537 1535 1533 1533 1532 1532 1531 1531 1531 1532 1532 1532 1532 1532 1532 1532 1533 1536 1537 1537 1535 1535 1533 1533 1533 1532 1533 1533 1532 1534 1536 1540 1560 1549 1548 1541 1541 1525 1523
1565 1562 1560 1558 1555 1551 1547 1542 1538 1536 1535 1534 1533 1533 1532 1532 1531 1532 1533 1533 1536 1536 1534 1536 1537 1537 1537 1537 1536 1536 1535 1534 1533 1533 1534 1532 1537 1542 1540 1538 1540 1542 1544 1545 1534 1525 1522
1569 1566 1563 1561 1558 1554 1551 1546 1543 1540 1537 1536 1535 1534 1534 1533 1532 1532 1533 1534 1535 1537 1539 1539 1538 1538 1538 1537 1538 1537 1536 1535 1534 1535 1533 1538 1539 1539 1538 1538 1540 1543 1545 1543 1528 1522 1526
1572 1569 1567 1564 1561 1557 1554 1550 1547 1544 1543 1541 1538 1535 1533 1533 1534 1534 1534 1535 1535 1537 1538 1541 1540 1540 1540 1540 1539 1538 1537 1536 1536 1537 1539 1542 1541 1538 1537 1539 1541 1539 1540 1536 1538 1528 1519
1573 1571 1569 1567 1563 1560 1557 1553 1549 1547 1545 1542 1540 1538 1535 1534 1536 1534 1534 1535 1535 1536 1548 1546 1542 1542 1541 1539 1541 1539 1537 1538 1537 1540 1538 1539 1538 1538 1539 1540 1539 1542 1531 1533 1534 1537 1536
1575 1573 1571 1568 1565 1562 1558 1556 1552 1549 1546 1544 1542 1539 1536 1534 1534 1533 1535 1536 1537 1538 1574 1546 1544 1542 1541 1542 1542 1540 1538 1537 1540 1540 1542 1540 1540 1541 1541 1538 1538 1537 1531 1532 1532 1535 1535
1576 1574 1572 1569 1567 1564 1561 1557 1554 1552 1549 1545 1543 1541 1538 1536 1534 1534 1534 1536 1538 1554 1568 1548 1544 1543 1542 1541 1541 1540 1540 1540 1541 1541 1541 1542 1541 1542 1540 1537 1536 1534 1531 1527 1531 1536 1545
1577 1575 1573 1571 1568 1565 1563 1560 1556 1553 1550 1548 1545 1543 1540 1536 1536 1535 1536 1538 1554 1568 1550 1551 1547 1545 1545 1544 1542 1542 1542 1544 1549 1553 1551 1542 1541 1541 1540 1540 1535 1539 1540 1547 1541 1553 1539
1578 1576 1574 1572 1570 1567 1564 1561 1558 1554 1551 1548 1546 1545 1543 1540 1538 1537 1537 1539 1566 1551 1553 1549 1548 1546 1548 1546 1545 1544 1546 1550 1548 1548 1558 1564 1552 1540 1540 1541 1543 1542 1543 1563 1557 1558 1548
1578 1576 1574 1572 1570 1568 1565 1562 1559 1555 1552 1549 1546 1544 1543 1541 1540 1539 1540 1564 1562 1555 1553 1554 1549 1550 1549 1546 1548 1547 1545 1551 1550 1550 1554 1557 1547 1540 1540 1540 1543 1540 1553 1543 1551 1547 1559
1577 1576 1574 1572 1570 1567 1565 1562 1559 1556 1552 1549 1546 1544 1543 1542 1541 1540 1542 1556 1552 1551 1551 1552 1554 1548 1551 1548 1547 1547 1545 1546 1548 1549 1550 1552 1560 1540 1539 1541 1541 1541 1542 1553 1561 1559 1540
1577 1576 1573 1571 1569 1566 1564 1561 1558 1555 1552 1548 1546 1544 1545 1543 1542 1542 1557 1555 1550 1551 1551 1552 1551 1550 1549 1549 1546 1546 1542 1547 1546 1548 1548 1549 1557 1549 1542 1543 1541 1545 1544 1543 1550 1550 1555
1577 1575 1573 1570 1568 1566 1563 1561 1557 1553 1551 1548 1546 1546 1545 1543 1545 1546 1553 1551 1551 1551 1552 1552 1552 1552 1550 1549 1549 1546 1542 1543 1545 1546 1549 1551 1557 1565 1544 1538 1537 1536 1535 1539 1556 1543 1548
1576 1574 1572 1569 1567 1565 1562 1560 1558 1554 1550 1548 1547 1546 1546 1544 1552 1551 1548 1548 1548 1549 1550 1551 1551 1549 1550 1550 1552 1545 1543 1544 1544 1545 1548 1549 1561 1572 1545 1543 1537 1537 1535 1535 1542 1545 1547
1575 1573 1570 1568 1565 1564 1562 1560 1558 1555 1553 1551 1550 1550 1547 1546 1547 1548 1549 1547 1548 1548 1547 1547 1548 1548 1549 1549 1548 1546 1543 1544 1543 1543 1544 1546 1553 1551 1550 1539 1542 1541 1536 1533 1537 1541 1530
1572 1570 1568 1566 1564 1564 1562 1559 1557 1555 1553 1552 1552 1553 1553 1553 1551 1551 1551 1549 1547 1548 1548 1547 1547 1547 1548 1548 1547 1544 1541 1542 1543 1543 1545 1546 1556 1549 1541 1538 1538 1534 1529 1526 1529 1523 1525
1570 1569 1567 1565 1563 1561 1560 1558 1557 1555 1552 1551 1552 1553 1553 1553 1550 1550 1549 1547 1545 1545 1545 1546 1547 1546 1546 1548 1546 1546 1545 1543 1542 1542 1544 1545 1552 1555 1560 1538 1533 1528 1520 1515 1515 1510 1508
1566 1566 1564 1562 1561 1559 1558 1556 1555 1553 1551 1551 1551 1553 1553 1551 1549 1550 1549 1546 1545 1544 1544 1543 1545 1546 1544 1542 1540 1539 1539 1538 1537 1537 1540 1541 1545 1546 1529 1531 1531 1529 1499 1501 1499 1496 1493
1561 1561 1561 1560 1558 1557 1556 1555 1553 1552 1551 1551 1551 1552 1552 1552 1550 1548 1545 1546 1544 1545 1545 1542 1541 1541 1541 1538 1536 1534 1530 1523 1523 1521 1527 1532 1538 1542 1529 1532 1540 1493 1485 1488 1488 1491 1490
1556 1556 1557 1557 1555 1553 1553 1553 1552 1551 1551 1551 1550 1552 1550 1550 1548 1545 1544 1544 1543 1542 1542 1540 1538 1538 1537 1536 1537 1534 1529 1522 1513 1514 1515 1519 1529 1529 1530 1533 1504 1490 1483 1481 1482 1493 1490
1551 1551 1553 1552 1551 1551 1549 1549 1550 1550 1550 1549 1549 1550 1551 1549 1545 1546 1544 1544 1543 1541 1540 1537 1537 1535 1535 1535 1538 1538 1536 1517 1517 1515 1516 1516 1517 1521 1524 1518 1510 1486 1484 1482 1482 1491 1487
1545 1545 1547 1550 1549 1548 1547 1546 1546 1547 1548 1548 1546 1547 1550 1548 1544 1543 1543 1543 1542 1541 1541 1537 1536 1535 1533 1536 1543 1541 1530 1516 1520 1513 1516 1526 1523 1516 1509 1502 1495 1485 1484 1482 1491 1493 1485
1541 1542 1542 1546 1546 1544 1545 1544 1543 1543 1543 1546 1546 1545 1548 1546 1541 1541 1542 1541 1539 1539 1540 1538 1537 1532 1534 1538 1539 1532 1531 1516 1513 1507 1511 1513 1519 1521 1512 1506 1497 1481 1484 1495 1493 1486 1484
1539 1538 1539 1541 1542 1541 1541 1542 1542 1540 1542 1541 1544 1543 1545 1545 1540 1538 1537 1536 1535 1535 1536 1536 1535 1532 1531 1534 1533 1529 1524 1525 1518 1521 1503 1509 1501 1501 1499 1494 1481 1481 1486 1487 1484 1482 1480